Home   Weather   Santiago de Compostela   Past weeks
Flag for Spain

Past Weather in Santiago de Compostela, A Coruña, Spain — November 2018

Currently: 69 °F. Passing clouds. (Weather station: La Coruna, Spain). See more current weather

November 2018 Weather in Santiago de Compostela — Graph

°F

High & Low Weather Summary for November 2018

 TemperatureHumidityPressure
High71 °F (Nov 16, 3:00 pm)99% (Nov 2, 6:00 am)30.36 "Hg (Nov 2, 6:00 am)
Low44 °F (Nov 25, 9:00 am)51% (Nov 16, 3:00 pm)29.44 "Hg (Nov 6, 6:00 pm)
Average55 °F80%29.89 "Hg
* Reported Nov 1 12:00 am — Nov 30 11:00 pm, Santiago de Compostela. Weather by CustomWeather, © 2024

Note: Actual official high and low records may vary slightly from our data, if they occured in-between our weather recording intervals... More about our weather records

Santiago de Compostela Weather History for November 1, 2018

Scroll right to see more
 ConditionsComfort  
Time TempWeatherWind HumidityBarometerVisibility
12:00 am
Thu, Nov 1
51 °FCool.6 mph95%29.89 "Hg6 mi
1:00 am51 °FPassing clouds.6 mph94%29.90 "Hg12 mi
3:00 am51 °FCool.6 mph89%29.92 "Hg10 mi
4:00 am51 °FLow clouds.5 mph87%29.92 "Hg12 mi
5:00 am50 °FCool.3 mph90%29.94 "Hg9 mi
6:00 am52 °FCool.7 mph85%29.96 "Hg10 mi
7:00 am52 °FPassing clouds.10 mph84%29.97 "Hg12 mi
8:00 am53 °FCool.10 mph83%29.98 "Hg11 mi
9:00 am53 °FCool.8 mph82%30.00 "Hg11 mi
10:00 am54 °FOvercast.2 mph81%30.02 "Hg16 mi
11:00 am54 °FCool.6 mph80%30.03 "Hg12 mi
12:00 pm56 °FCool.8 mph71%30.03 "Hg12 mi
1:00 pm57 °FOvercast.6 mph71%30.02 "Hg16 mi
2:00 pm58 °FCool.10 mph70%30.01 "Hg12 mi
3:00 pm58 °FDrizzle. Cloudy.13 mph72%30.01 "Hg11 mi
4:00 pm58 °FDrizzle. Cloudy.9 mph79%30.00 "Hg9 mi
5:00 pm58 °FDrizzle. Cloudy.7 mph79%30.00 "Hg11 mi
6:00 pm57 °FLight rain. Cloudy.6 mph87%30.01 "HgN/A
7:00 pm58 °FCool.17 mph85%30.00 "Hg10 mi
8:00 pm59 °FDrizzle. Overcast.15 mph90%30.01 "Hg9 mi
9:00 pm59 °FRain. Overcast.12 mph94%30.05 "Hg2 mi
10:00 pm60 °FDrizzle. Low clouds.17 mph97%30.04 "Hg1 mi
11:00 pm59 °FFog.14 mph96%30.08 "Hg4 mi
Weather by CustomWeather, © 2024

See weather overview